RH
103 104 106 109 105 105 106 102 101 100 97 97 96 95 95 95 96 97 98 98 98 97 96 94 91 88 85 83 81 80 80 81 82 82 81 78 74 69 64 57 50 43 38 34 30 28 29 30 28 27 27 27 28 29 29 29 29 28 25 24 23 23 22 21 21 24 31 35 35 33 29 22 17 17 19 24 31 37 41 41 38 34 32 28 26
108 107 106 107 104 102 100 97 95 94 94 95 95 96 96 97 97 97 96 95 94 92 90 88 86 86 86 87 89 91 92 92 91 86 80 72 64 57 52 47 43 40 36 32 30 31 31 30 29 29 30 30 30 30 30 29 29 28 26 26 26 25 25 24 22 22 28 34 34 30 25 20 18 18 19 22 28 35 39 39 36 33 30 28 26
104 103 100 99 97 95 93 92 93 94 95 95 94 93 92 92 91 90 89 87 86 85 85 86 88 90 93 95 97 97 94 88 82 74 66 58 52 46 43 40 37 34 32 31 33 34 33 32 32 31 31 31 31 31 32 32 32 31 29 28 28 27 27 26 25 23 25 29 31 28 23 22 22 21 21 21 22 27 30 32 32 31 30 30 29
98 95 93 90 89 88 89 90 91 91 90 88 87 86 86 86 86 85 84 84 84 84 85 87 89 90 91 91 89 85 79 71 64 57 52 48 44 41 37 33 31 30 30 31 32 33 33 33 33 33 32 31 31 31 32 33 34 33 32 31 30 30 30 29 28 26 26 26 26 26 24 24 26 26 25 25 24 23 24 26 28 30 31 31 32
89 86 85 85 85 86 86 86 86 85 84 84 85 86 86 85 84 83 82 82 82 82 81 80 79 78 76 72 68 63 58 54 51 48 45 42 39 37 34 31 31 31 31 31 31 31 32 32 33 32 32 31 30 30 31 32 33 34 34 34 33 33 33 32 31 29 28 26 25 25 24 26 30 31 30 29 30 28 28 28 28 30 32 33 33
85 86 88 89 90 90 90 90 89 89 89 90 89 86 84 81 78 75 73 71 68 66 64 61 58 56 54 52 49 47 44 42 41 40 40 39 37 35 34 34 34 34 34 33 33 34 34 34 34 34 33 33 32 31 31 31 31 32 33 34 35 35 36 36 35 33 30 29 28 26 24 25 30 34 35 34 34 33 32 33 34 33 33 33 33
94 95 96 95 94 92 91 89 87 84 81 78 74 69 65 61 58 55 52 50 48 47 46 45 44 43 43 43 43 42 43 42 41 40 39 39 39 38 38 38 37 36 36 35 35 35 35 36 35 35 35 35 35 34 33 33 32 32 32 32 33 35 36 37 38 37 35 32 31 30 27 26 28 32 36 38 38 37 36 34 35 36 35 34 33
84 82 79 76 72 68 65 62 59 57 54 51 49 47 46 45 44 43 43 43 43 44 44 45 46 47 47 48 47 46 46 46 46 46 46 46 47 47 47 45 44 42 40 38 36 36 35 35 35 35 35 35 35 34 34 34 34 34 33 33 33 34 35 37 39 40 39 37 35 34 32 31 29 30 33 36 38 40 40 37 34 34 35 34 34
55 53 52 50 49 47 47 46 46 45 45 45 46 46 46 46 46 47 47 48 48 49 51 52 53 54 54 54 53 52 51 51 51 53 54 56 56 55 54 52 50 48 45 42 39 37 36 34 33 32 32 31 31 31 31 31 31 31 31 31 30 31 32 34 37 40 42 42 40 37 36 35 34 32 32 33 35 37 40 41 37 33 32 33 33
45 46 47 47 48 49 49 50 50 50 50 51 51 50 50 50 49 49 49 50 51 53 54 55 55 55 55 54 55 55 55 55 56 58 60 60 60 58 56 53 51 50 48 46 43 42 40 38 36 35 34 33 33 32 32 32 32 32 32 32 31 30 30 30 31 34 38 41 43 43 41 39 37 36 35 34 33 34 36 40 42 38 33 31 32
47 48 48 49 50 50 51 51 51 51 50 50 50 49 49 48 48 48 50 52 54 57 58 58 58 58 58 58 58 60 62 63 65 65 65 63 62 60 58 57 56 55 55 54 52 50 48 46 45 43 42 41 41 39 39 38 37 37 37 37 36 36 35 34 32 32 33 35 39 42 44 44 42 39 38 36 34 32 32 35 40 42 39 36 32
49 50 51 52 52 52 53 53 53 53 53 52 52 52 51 52 53 56 59 62 65 67 68 69 68 68 68 68 69 71 71 71 71 69 66 64 63 62 62 62 62 61 60 59 58 56 54 52 50 49 48 46 45 44 43 42 41 40 40 39 39 38 38 38 37 36 35 34 35 37 40 43 45 45 43 40 37 34 32 31 34 38 41 41 39
55 56 57 57 58 58 58 59 58 58 58 57 56 56 57 58 60 63 65 67 68 69 69 69 68 68 69 69 70 69 68 67 65 64 63 63 63 63 63 63 62 61 59 57 55 54 52 51 49 48 46 45 44 43 42 41 41 41 41 41 40 40 39 38 37 37 37 36 36 36 37 38 41 44 46 45 43 40 36 33 32 33 35 38 41
52 53 53 54 54 54 54 54 53 53 52 52 51 51 52 53 55 57 58 59 59 60 60 59 59 59 59 59 58 57 56 56 55 55 56 56 57 57 57 57 57 56 55 54 52 51 49 48 47 45 44 43 42 41 40 39 38 38 38 38 38 38 38 38 38 37 37 36 35 35 36 36 37 39 42 44 45 45 42 38 35 33 31 32 35
43 44 44 44 44 45 45 45 44 44 43 43 43 44 47 49 51 52 52 51 50 50 49 49 49 48 47 47 47 47 48 48 49 49 50 50 50 51 51 51 52 52 52 52 52 51 51 49 49 47 46 45 43 41 40 38 37 36 35 34 34 34 34 34 34 35 35 35 35 34 33 33 34 35 36 38 41 43 44 43 40 37 33 31 32
41 41 42 42 42 41 41 40 40 40 41 43 46 49 51 52 51 49 48 47 47 47 47 47 47 46 46 46 47 47 48 49 49 50 50 50 51 51 52 53 53 54 54 54 54 54 53 51 49 47 43 40 38 35 32 31 30 29 29 28 28 28 28 28 28 29 30 30 31 31 31 31 31 31 31 32 33 36 38 40 42 41 37 34 32
46 46 45 43 43 43 44 45 47 49 52 54 56 55 54 53 51 51 52 52 52 53 53 54 55 55 56 56 57 57 58 58 58 58 58 58 58 57 56 55 54 53 51 49 47 45 41 38 35 32 29 26 23 21 20 19 18 18 18 18 18 19 19 20 21 22 23 24 25 26 27 28 29 29 29 29 29 29 30 32 35 37 38 36 33
50 49 48 49 51 53 55 56 58 59 61 61 60 58 57 58 59 60 60 61 61 62 62 63 64 64 65 65 64 63 62 61 59 57 55 53 51 48 45 42 38 35 33 31 28 26 24 22 21 19 18 17 16 15 14 14 13 13 13 13 13 13 13 13 14 14 15 16 17 19 20 21 24 25 26 27 27 27 27 27 28 29 31 33 33
51 51 53 54 55 56 56 56 57 58 58 57 57 56 56 55 55 54 54 53 53 53 53 53 52 51 50 49 47 44 42 40 37 34 32 30 28 27 25 23 22 20 20 19 18 17 17 16 15 15 14 14 13 13 13 12 12 12 12 12 11 11 11 11 11 11 11 11 12 12 14 15 16 17 19 21 23 24 25 25 25 25 26 26 28
38 39 39 39 38 38 38 39 39 39 38 38 37 36 35 34 33 32 31 30 30 29 29 29 28 27 26 26 25 24 23 22 21 20 19 19 18 18 17 17 16 16 15 15 14 14 13 13 13 12 12 12 11 11 11 11 11 11 11 11 10 10 10 10 10 10 10 10 10 10 10 11 11 12 13 13 15 17 19 20 21 22 23 23 24
21 20 20 20 20 20 21 21 21 21 21 21 21 20 20 20 19 19 19 19 19 19 19 19 19 19 18 18 18 17 17 17 17 16 16 16 15 15 14 14 14 13 13 13 12 12 12 11 11 11 10 10 10 10 10 9 9 9 9 9 9 9 8 8 8 8 8 8 8 8 8 9 9 9 10 10 10 11 12 13 14 16 18 19 20
14 15 15 15 15 15 16 16 16 16 16 16 16 16 16 16 16 17 17 17 16 16 16 16 16 15 15 15 15 14 14 14 14 14 13 13 13 13 13 12 12 12 11 11 11 10 10 10 10 9 9 9 9 9 9 9 8 8 8 8 8 7 7 7 7 7 7 7 6 6 7 7 7 7 8 8 8 9 9 9 9 10 11 12 13
14 14 14 14 14 14 14 14 14 14 14 14 14 14 14 14 14 14 13 13 13 13 13 13 13 13 13 13 13 13 13 13 12 12 12 12 12 11 11 11 10 10 10 10 10 9 9 9 9 9 9 9 9 9 9 9 8 8 8 8 8 7 7 7 7 6 6 6 6 6 6 6 6 6 6 6 7 7 8 8 8 8 8 8 8
11 11 11 11 12 12 12 12 12 12 12 12 11 11 11 11 10 11 10 11 12 12 12 12 13 13 12 12 12 12 12 12 12 11 11 11 11 10 10 10 10 10 10 10 10 9 9 9 9 9 9 9 9 9 8 8 8 7 7 7 7 7 7 6 6 6 6 6 5 5 5 5 5 5 5 5 5 6 6 6 6 6 7 7 7
8 8 8 9 9 9 9 9 9 10 10 10 10 9 9 9 9 9 9 10 11 11 11 12 12 12 12 12 11 11 11 11 11 11 10 10 10 10 10 9 9 9 9 9 9 9 8 8 8 8 8 8 7 7 7 6 6 6 6 6 5 5 5 5 5 5 5 5 5 5 5 5 5 5 5 5 5 5 5 5 5 5 5 6 6
7 7 7 7 7 7 7 7 8 8 8 8 8 8 8 8 8 8 8 9 9 9 10 10 10 10 10 10 10 10 10 10 10 9 9 9 9 9 8 8 8 8 8 7 7 7 7 6 6 6 6 6 6 6 6 5 5 5 5 5 5 5 5 5 5 5 4 4 4 4 4 4 4 4 4 4 4 4 4 4 5 5 5 5 5
8 8 7 7 7 7 7 7 7 7 7 7 7 7 7 7 7 7 8 8 8 8 8 8 9 8 9 9 9 9 9 8 8 8 8 8 8 7 7 7 7 7 6 6 6 6 6 6 6 5 5 5 5 5 5 5 5 5 5 5 5 5 5 4 4 4 4 4 4 4 4 4 4 4 4 4 4 4 4 4 4 4 4 4 4
8 8 8 8 8 8 7 7 7 7 7 7 7 7 7 7 7 7 7 7 7 7 7 7 7 7 7 8 7 7 8 7 7 7 7 7 7 7 7 6 6 6 6 6 6 6 6 6 6 6 6 6 6 6 5 5 5 5 5 5 5 5 4 5 5 4 4 4 4 4 4 4 4 4 4 4 4 4 4 4 4 4 4 4 4
8 8 8 8 8 8 8 8 8 8 8 8 8 8 7 7 7 7 7 7 7 7 7 7 7 7 7 7 7 7 7 7 7 7 7 7 7 6 7 6 6 7 7 6 6 6 6 6 6 6 6 6 6 6 5 5 5 5 5 4 4 4 4 4 4 4 4 4 4 4 4 4 4 4 4 4 4 4 4 4 4 4 4 4 3
8 8 8 8 8 8 8 8 8 8 8 8 8 8 8 7 7 7 7 7 7 7 7 7 7 7 7 7 7 7 7 7 7 7 7 7 7 7 7 7 7 7 7 7 7 6 6 6 6 6 6 5 5 5 4 4 4 4 4 3 3 4 3 3 3 3 3 3 3 3 3 3 3 3 3 3 3 4 3 4 4 3 4 4 3
7 7 7 7 7 7 7 7 7 8 7 8 8 8 8 7 7 8 8 7 7 7 7 7 7 7 7 7 7 7 7 7 7 7 7 7 7 7 7 7 7 7 7 6 6 6 5 5 5 5 5 4 4 4 3 4 4 3 3 3 3 3 4 4 4 3 4 3 3 3 3 3 3 2 3 3 2 3 3 3 3 3 3 3 3
8 8 7 7 7 7 7 7 7 7 7 7 7 7 7 7 7 7 7 7 7 7 7 7 7 7 7 7 7 7 7 7 7 7 7 6 6 6 6 6 6 6 6 5 5 5 5 4 4 4 4 4 4 4 4 4 4 4 4 3 3 4 4 4 4 4 4 3 3 3 3 3 3 3 3 3 2 3 2 2 2 2 2 3 3
8 8 8 7 8 7 7 7 7 7 7 7 7 7 7 7 7 7 7 7 7 7 7 7 7 7 7 6 7 7 6 6 6 6 6 6 6 5 5 5 5 5 5 5 5 5 4 4 4 4 4 4 4 4 4 4 4 3 3 3 3 3 3 4 4 3 3 3 3 3 3 3 3 3 3 3 3 3 3 3 3 2 2 2 2
8 8 8 7 7 7 7 7 7 7 7 7 7 7 7 7 7 7 7 7 7 7 6 7 6 6 6 6 6 6 6 6 6 6 6 5 5 5 5 5 5 5 5 5 5 5 4 4 4 4 4 4 4 4 4 4 4 3 3 3 3 3 3 3 3 3 3 3 3 3 3 3 3 3 2 3 3 3 3 3 3 3 3 3 3
8 8 8 8 8 7 7 7 7 7 7 7 7 6 7 7 7 7 7 7 7 6 6 6 6 6 6 6 6 6 6 6 6 5 5 5 5 5 5 5 5 5 5 5 5 5 4 4 4 4 4 4 4 4 4 4 4 3 3 3 3 3 3 3 3 3 3 3 3 3 3 3 3 2 2 2 2 3 3 3 3 3 3 3 3
9 9 9 8 8 8 8 8 7 7 7 7 7 7 7 7 7 7 7 7 6 6 6 6 6 6 6 6 6 6 6 6 6 5 5 5 5 5 5 5 5 5 5 5 4 4 4 4 4 4 4 4 4 4 4 4 4 3 3 3 3 3 3 3 3 3 3 3 3 3 3 3 3 2 2 2 2 3 3 3 3 3 3 3 3
10 10 9 9 8 8 8 8 8 8 8 8 7 7 7 7 8 8 7 7 7 7 7 7 7 7 6 6 6 6 6 6 6 6 5 5 5 5 5 5 5 5 5 5 4 5 4 4 4 4 4 4 4 4 4 4 3 3 3 3 3 3 3 3 3 3 3 3 3 3 3 3 3 3 3 2 2 3 3 3 3 3 3 3 3
10 9 9 8 8 8 8 8 8 8 8 8 8 8 8 8 8 8 8 8 8 8 7 7 7 7 7 6 6 6 6 6 6 6 6 6 5 5 5 5 5 5 5 5 4 4 4 4 4 4 4 4 4 4 3 3 3 3 3 3 3 3 3 3 3 3 3 3 3 3 3 3 3 3 2 3 3 3 3 3 3 3 3 3 3
9 9 9 8 8 8 8 8 8 8 8 8 8 8 8 8 8 9 8 8 8 8 8 7 7 7 7 7 7 7 6 6 6 6 6 5 5 5 5 5 5 5 5 5 5 4 4 4 4 4 4 4 4 4 3 3 3 3 3 3 3 3 3 3 3 3 3 3 3 3 3 3 3 3 3 3 3 3 3 3 3 3 3 3 3
9 8 8 8 8 8 8 8 8 9 9 9 9 9 8 8 8 8 8 8 8 7 7 7 7 7 7 6 6 6 6 6 6 5 5 5 5 5 5 5 5 5 5 5 5 5 4 4 4 4 4 4 4 4 4 3 3 3 3 3 3 3 3 3 3 3 3 3 3 3 3 3 3 3 3 3 3 3 3 3 3 3 2 2 3
8 8 8 8 8 8 8 8 8 9 9 9 9 9 8 8 8 8 8 7 7 7 7 6 6 6 6 5 5 5 5 5 5 5 5 5 5 5 5 6 6 5 5 5 5 4 4 4 4 4 4 4 4 4 4 4 4 3 3 3 3 3 3 3 3 3 3 3 3 3 3 3 3 3 3 3 3 3 3 3 2 2 2 2 3
8 8 8 8 8 8 8 8 8 9 9 9 9 9 8 8 8 7 7 7 6 6 6 6 6 6 5 5 5 5 5 5 5 5 5 5 5 5 5 6 6 6 5 5 5 4 4 4 4 4 4 4 4 4 4 4 4 4 3 3 3 4 3 3 3 3 3 3 3 3 3 3 3 3 3 3 3 3 3 3 2 2 2 2 3
9 9 9 9 9 9 8 8 8 8 8 9 9 9 8 7 7 7 7 7 6 6 6 6 6 6 5 5 5 5 5 5 5 5 5 5 5 5 5 6 6 6 5 5 5 4 4 4 4 4 4 4 4 4 4 4 4 4 3 3 3 4 4 3 3 3 3 3 3 3 3 3 3 3 3 3 3 3 3 3 2 2 3 3 3
10 9 9 9 9 9 9 8 8 8 8 8 8 8 8 7 7 7 7 7 7 6 6 6 6 6 5 5 5 5 5 5 5 5 5 5 5 5 5 6 6 5 5 5 4 4 4 4 4 4 4 4 4 4 4 4 4 4 3 3 4 4 4 3 3 3 3 3 3 3 3 3 3 3 3 3 3 3 3 3 3 3 3 3 3
10 10 10 9 9 9 9 8 8 8 8 8 8 8 8 7 7 7 7 7 7 6 6 6 6 6 6 5 6 5 5 5 5 5 5 5 5 5 5 5 5 5 5 4 4 4 4 4 4 4 4 4 4 4 4 3 4 4 3 3 4 3 3 3 3 4 4 3 3 3 3 3 3 3 3 3 3 3 3 3 3 3 3 3 3
11 10 10 10 9 9 9 8 8 7 7 7 7 7 7 7 7 7 7 7 7 6 6 6 6 6 6 6 6 6 5 5 5 4 4 4 5 5 5 5 5 5 5 4 4 4 4 4 4 4 4 4 4 4 3 3 4 4 3 3 4 3 4 4 3 4 4 3 4 3 3 3 3 3 3 3 3 3 3 3 3 3 3 4 3
11 11 10 10 10 10 9 8 8 7 7 7 7 7 7 7 7 7 7 7 7 6 6 7 7 6 6 6 6 5 5 5 4 4 4 4 4 5 5 5 5 5 5 4 4 4 4 4 4 4 4 4 4 4 3 3 4 4 3 4 4 3 4 4 4 4 4 4 4 4 3 4 3 3 3 3 3 3 3 3 4 3 4 4 4
12 11 10 10 10 9 9 9 8 7 7 7 7 7 7 7 7 7 7 7 7 7 7 7 7 7 6 6 6 5 5 5 4 4 4 4 4 4 4 4 5 5 5 4 3 4 3 3 4 4 4 4 5 4 4 3 4 4 4 4 4 4 4 4 4 4 4 4 4 4 4 4 4 3 4 3 3 3 3 3 4 4 4 4 4
12 11 10 9 9 9 9 9 8 7 7 7 7 8 7 7 7 7 7 7 7 7 7 7 7 6 6 5 5 5 5 5 4 4 4 3 4 4 4 4 4 5 5 4 4 4 3 3 4 4 4 4 4 5 4 4 4 4 4 4 4 4 4 4 4 4 4 4 4 4 4 4 4 4 4 4 3 4 4 4 4 4 4 4 4
11 10 9 9 9 9 9 8 8 7 7 7 7 7 7 7 7 7 7 7 8 8 7 7 6 6 5 5 5 4 5 4 4 4 4 3 3 4 4 5 5 5 5 5 4 4 3 3 4 4 4 4 4 4 4 4 4 4 4 4 4 4 4 4 4 4 4 4 4 4 4 4 4 4 4 4 4 4 4 4 4 4 4 4 4
11 10 9 9 8 8 8 8 7 7 7 7 7 7 7 7 7 7 7 7 8 8 7 6 6 5 5 5 5 5 5 4 4 4 4 4 4 3 4 5 5 5 5 5 4 4 4 3 4 4 4 4 4 4 4 4 4 4 4 4 4 4 4 4 4 4 4 4 4 4 4 4 4 4 4 4 4 4 4 4 4 5 4 5 5
Wind_Speed
96 97 98 99 100 101 102 102 103 104 105 105 106 106 106 106 106 106 106 106 106 105 105 104 104 103 102 101 101 100 100 99 99 99 99 99 99 99 99 98 97 96 94 90 85 80 77 77 75 74 73 72 71 71 71 71 71 71 70 69 69 69 69 69 69 70 72 74 75 76 76 76 75 76 77 78 80 82 83 84 85 85 84 84 83
98 100 101 102 102 103 104 104 105 105 106 106 106 107 106 106 106 106 106 105 104 104 103 102 101 101 100 100 100 100 100 100 101 101 101 101 101 100 99 98 97 94 91 86 82 79 78 78 77 76 75 74 74 73 73 73 73 73 72 71 71 70 70 71 70 69 70 73 74 75 75 75 74 74 75 76 78 80 82 83 84 84 84 83 83
101 102 103 104 104 105 105 106 106 106 106 106 106 105 105 105 104 104 103 102 102 101 101 101 101 100 100 101 101 102 102 103 103 103 103 103 101 100 98 96 94 91 87 84 82 81 81 80 80 79 79 78 77 76 76 76 76 76 75 74 74 73 72 73 72 71 71 73 74 74 75 75 75 75 75 76 77 79 81 82 83 84 84 84 84
103 104 104 104 104 104 104 104 104 103 103 103 103 103 102 102 102 102 102 102 102 102 102 102 102 102 102 102 103 103 104 104 104 104 102 101 100 98 96 93 90 88 86 84 84 84 84 84 84 84 83 82 81 80 79 79 79 79 78 77 77 76 76 76 75 74 73 73 74 75 77 77 77 77 77 77 78 80 81 83 84 85 87 87 87
102 101 101 101 101 101 101 101 101 101 101 101 101 102 102 102 102 103 103 103 103 103 103 104 104 104 104 104 104 104 103 103 102 101 100 98 96 95 93 91 89 88 88 87 87 87 87 88 88 88 88 86 85 84 83 83 83 82 82 81 80 80 80 80 79 79 77 76 75 77 79 79 79 81 81 80 81 83 83 85 86 88 89 90 90
98 98 99 99 99 100 100 100 101 101 102 102 103 103 104 104 104 104 105 105 105 104 104 104 103 103 102 102 102 101 100 99 98 97 96 96 95 94 93 92 92 92 92 92 92 91 92 92 92 92 92 91 90 89 88 88 87 87 86 85 84 83 83 83 84 84 82 80 79 80 82 82 83 84 84 84 85 87 87 88 90 92 92 93 93
97 98 99 100 100 101 102 102 103 103 104 104 104 104 104 104 104 103 103 102 102 101 101 100 99 99 98 98 98 97 97 97 97 96 96 96 97 97 97 97 96 96 96 96 96 96 96 97 97 96 96 96 96 95 94 93 92 92 92 91 89 88 87 86 87 89 88 86 85 84 84 86 87 88 88 89 89 91 92 93 94 95 96 96 96
99 99 100 100 101 101 101 102 102 102 101 101 101 100 100 100 99 99 98 98 98 98 98 98 97 97 98 98 98 98 98 99 99 100 100 100 100 101 102 102 102 102 102 102 101 101 101 101 101 101 101 100 100 99 99 98 97 97 97 96 95 94 93 91 91 92 93 92 92 91 90 90 91 92 93 93 93 94 96 98 98 98 99 99 100
96 96 97 97 97 97 98 98 98 98 98 98 98 98 98 98 98 98 99 99 99 100 100 101 101 101 101 102 102 103 103 103 103 104 104 105 105 106 107 107 107 108 108 107 106 106 106 106 105 105 104 104 103 102 102 101 101 100 100 100 100 99 98 97 96 96 97 97 97 97 96 96 96 97 97 98 98 98 99 101 103 103 102 102 103
93 94 94 95 96 97 98 98 99 99 100 100 101 101 102 102 102 102 103 103 104 104 105 105 106 106 106 106 107 107 107 107 107 108 108 109 109 110 110 110 111 111 111 111 110 110 109 109 108 107 106 106 105 105 104 103 103 102 102 101 101 101 101 101 100 101 101 102 102 103 103 102 102 102 102 103 103 103 102 103 107 108 107 106 106
95 96 97 98 99 100 101 102 102 103 103 104 104 105 105 105 105 105 106 106 107 107 108 108 108 109 109 109 109 109 109 109 110 110 111 111 111 112 112 112 112 113 113 114 113 113 112 112 112 111 110 109 109 108 108 107 106 105 105 104 104 104 104 103 103 103 104 105 106 107 108 108 108 108 108 109 109 108 107 106 108 111 112 111 111
98 99 100 101 102 102 103 104 105 105 106 106 106 106 107 107 107 107 107 108 108 109 110 110 110 111 111 111 111 111 111 112 112 112 113 113 113 113 114 114 115 115 116 116 116 116 116 116 115 115 114 114 113 113 112 111 111 110 110 109 109 109 109 108 108 107 107 107 108 110 111 112 113 114 114 115 114 113 112 111 111 114 115 115 116
99 100 102 103 103 104 105 105 106 107 107 108 108 108 108 108 108 109 109 110 111 111 112 113 113 113 113 113 113 114 114 114 115 115 115 115 115 116 116 117 118 118 118 119 119 119 119 119 118 118 118 117 117 116 116 115 115 114 114 114 114 114 114 114 113 113 113 113 113 113 114 114 116 118 119 120 120 119 119 117 116 117 118 118 119
102 103 104 105 106 106 107 108 108 109 109 109 110 109 109 110 110 111 112 113 113 114 114 115 116 116 116 116 116 116 117 117 117 117 117 117 118 118 119 119 120 121 121 121 122 122 122 122 122 122 122 121 121 121 120 120 120 119 119 119 119 119 119 119 119 118 118 119 119 119 119 119 119 121 123 124 125 125 125 124 123 123 122 121 121
104 105 106 107 108 108 109 110 110 111 111 111 111 111 111 112 113 114 114 115 116 116 116 117 117 118 118 118 118 118 118 119 119 119 119 120 120 120 121 121 122 123 124 124 125 126 126 126 126 126 126 126 126 125 125 124 124 124 123 123 123 123 124 124 124 124 124 124 125 125 125 125 125 126 127 127 128 129 130 130 130 129 128 126 125
107 108 109 110 110 111 111 112 112 112 113 113 113 114 115 116 116 117 117 118 118 119 119 120 120 121 121 121 121 121 121 122 122 123 123 123 124 124 125 125 126 126 127 128 128 129 129 129 129 129 129 128 128 127 127 126 126 126 126 126 126 127 127 127 127 128 128 128 129 130 130 130 130 132 132 132 132 133 133 134 135 135 135 132 130
111 112 113 113 114 115 115 116 116 117 117 118 119 119 120 120 121 121 122 122 123 123 124 124 125 125 125 126 126 127 127 127 127 128 128 128 129 129 129 129 129 129 129 129 129 129 129 129 129 129 128 128 127 126 126 125 125 125 125 125 126 127 127 128 129 129 130 131 132 133 133 133 134 135 137 137 137 138 138 138 139 139 140 139 136
115 116 116 117 118 119 120 120 121 122 122 123 124 124 124 125 125 126 127 127 127 128 128 128 129 129 130 130 131 131 131 131 131 131 131 131 131 130 130 130 129 129 128 128 128 128 127 127 127 126 126 125 125 124 124 123 123 122 123 123 123 124 125 125 127 128 129 131 132 133 134 135 136 137 139 140 140 141 141 142 142 142 143 143 141
117 118 119 120 120 121 122 123 123 124 125 125 126 127 127 127 127 128 128 128 128 129 129 129 129 129 130 130 130 130 130 129 129 129 128 128 128 128 127 127 127 126 126 125 125 124 124 123 123 123 122 122 121 121 121 120 120 120 119 120 120 121 121 122 123 124 126 127 128 130 131 133 135 137 139 140 142 143 144 144 145 146 146 146 145
115 116 117 118 118 119 120 121 122 122 123 123 124 124 125 125 125 125 125 125 125 125 125 125 125 125 125 126 126 126 126 126 125 125 125 125 124 124 124 123 123 123 122 122 121 120 120 119 119 118 118 117 117 116 116 115 115 115 115 116 116 117 117 117 118 119 121 122 123 124 126 128 131 134 136 138 140 142 144 145 147 147 148 148 148
111 112 112 113 114 114 115 116 117 118 118 119 119 120 120 120 120 121 121 121 121 121 121 121 121 121 121 121 121 122 122 122 122 121 121 121 121 120 120 120 119 119 118 118 117 116 116 115 114 114 113 113 112 112 112 112 112 112 113 113 113 114 114 115 115 116 117 119 119 120 121 123 126 129 132 134 136 139 141 143 145 147 148 149 149
106 107 107 108 109 109 110 111 111 112 113 113 114 114 115 115 115 115 116 116 116 117 117 117 117 117 117 117 117 117 117 117 117 117 117 116 116 116 116 115 115 115 114 114 113 113 112 112 111 111 111 111 111 111 111 111 111 111 112 112 113 113 113 114 114 115 116 117 118 118 119 120 123 125 127 129 132 135 137 139 141 143 144 146 147
102 103 103 103 104 105 106 106 107 107 108 109 109 110 110 111 111 111 112 112 112 113 113 113 113 113 113 113 113 113 113 113 113 113 113 112 112 112 112 111 111 111 112 111 111 111 111 111 111 110 110 110 110 110 111 111 111 111 111 112 112 113 113 113 114 114 115 117 118 118 118 119 121 122 123 125 127 130 132 134 136 138 139 140 142
98 98 99 100 100 101 102 103 103 104 105 106 106 107 107 108 108 108 108 109 109 109 109 109 109 110 110 110 110 110 110 110 110 110 110 110 110 110 110 110 110 110 110 110 110 110 110 110 110 110 109 110 109 110 110 110 110 110 110 110 111 111 112 112 113 113 114 115 116 117 117 118 120 121 121 122 124 126 127 129 131 133 134 135 136
95 95 95 96 96 97 98 98 99 100 101 102 103 103 104 104 105 105 105 105 106 106 106 106 106 107 107 107 108 108 108 109 109 109 109 109 109 110 109 109 109 109 109 110 109 109 109 109 109 108 108 108 108 108 108 108 108 108 108 108 108 109 109 110 110 111 112 112 114 114 115 117 118 119 120 120 122 123 124 125 127 128 130 131 132
94 94 94 94 94 94 94 94 95 96 97 98 99 99 100 101 101 101 102 102 103 104 104 104 105 105 106 106 107 107 108 108 108 108 109 109 109 109 109 108 108 108 108 108 108 108 108 107 106 106 106 105 105 105 105 105 105 105 106 105 106 106 106 107 107 108 109 110 111 112 113 114 116 117 118 118 119 120 121 122 123 125 127 128 128
92 92 92 93 93 93 93 93 93 94 95 96 96 97 97 98 98 99 99 100 101 102 102 103 103 104 104 105 106 106 107 107 107 107 107 107 107 107 107 107 106 106 106 106 106 105 105 104 104 103 103 103 102 103 103 103 103 103 103 103 103 103 103 104 105 105 107 107 108 109 109 111 112 114 115 116 117 117 118 119 120 122 124 125 126
87 88 89 90 91 91 92 92 93 94 94 95 95 96 96 96 97 97 97 98 98 99 100 100 101 101 102 103 103 104 104 104 104 104 104 104 104 104 104 104 103 103 103 102 102 102 102 101 101 100 100 99 99 100 100 100 100 100 101 101 100 100 100 100 100 101 102 103 104 105 106 107 109 110 112 113 114 114 115 115 116 118 120 121 122
82 83 84 85 86 87 87 88 90 90 91 92 93 94 94 94 95 95 96 96 96 97 98 98 98 99 99 100 100 101 101 101 101 101 101 101 100 100 100 100 100 99 99 99 99 99 98 97 97 97 97 96 96 97 97 97 97 97 97 96 95 95 95 95 95 96 97 99 100 101 101 103 104 106 107 108 110 111 111 111 112 114 115 116 117
78 79 80 81 82 82 83 84 85 86 87 89 90 90 91 92 92 93 93 94 94 95 95 95 96 96 96 97 97 97 98 98 97 97 97 97 97 97 97 97 97 96 96 96 96 95 95 94 93 93 94 94 94 94 93 93 93 93 92 91 90 90 90 90 91 92 94 96 97 97 97 98 99 101 102 103 105 106 107 107 108 110 111 111 112
76 77 77 78 79 79 80 81 82 83 84 85 86 87 88 88 89 89 90 91 91 92 92 93 93 93 94 94 94 95 95 95 95 95 95 95 94 94 94 93 93 94 93 93 93 93 92 92 91 90 90 91 91 91 90 89 89 90 89 87 85 85 85 86 87 89 90 92 93 93 92 92 94 95 97 97 99 100 102 102 103 104 105 105 106
76 76 77 77 78 78 78 79 80 80 81 82 83 84 85 85 86 86 87 88 89 89 90 90 91 91 91 91 92 92 92 93 92 92 92 92 92 92 91 91 91 91 91 91 91 91 90 89 88 88 87 87 87 87 87 86 86 87 86 85 82 80 80 82 84 86 87 88 89 90 89 88 88 90 91 92 93 94 96 97 98 99 99 100 101
76 76 77 77 77 77 78 79 79 80 80 81 81 82 83 83 84 84 85 86 87 87 88 88 89 88 89 89 89 90 90 90 90 90 90 90 90 89 89 88 89 89 89 89 89 88 88 87 86 84 84 84 84 84 83 84 84 83 83 82 80 77 77 79 81 83 84 85 85 86 86 86 85 85 85 86 87 89 89 90 91 92 94 95 97
77 77 77 77 77 77 77 77 78 78 79 80 80 81 81 81 82 82 83 84 85 85 86 86 86 86 86 86 87 87 87 88 88 88 88 88 87 87 86 86 86 86 86 87 86 86 85 85 83 82 80 80 81 81 80 81 81 80 80 79 77 75 75 76 78 79 80 81 82 82 83 83 83 82 81 81 82 83 83 83 85 86 88 90 92
78 78 78 78 77 77 77 77 78 78 78 79 79 79 80 80 80 81 81 82 82 83 83 83 84 84 84 84 84 85 85 85 86 86 86 86 85 84 84 84 84 84 84 84 84 83 83 83 81 79 77 77 78 78 78 78 78 78 77 76 74 73 73 74 75 76 76 78 79 79 79 80 79 79 77 77 77 77 78 79 81 82 84 86 87
80 80 80 79 78 78 78 78 78 78 78 78 79 79 79 79 79 80 80 80 81 81 82 82 82 82 82 82 82 83 83 84 84 84 84 83 83 82 81 81 81 82 82 81 81 80 80 80 79 77 75 75 76 76 76 76 76 76 75 73 71 71 72 73 73 73 73 74 76 76 77 77 77 76 75 74 73 73 74 76 78 80 80 82 83
79 80 80 79 78 78 77 77 76 76 76 76 77 77 77 77 78 78 79 79 79 80 80 80 81 81 81 81 80 80 81 81 81 81 82 81 80 80 79 79 79 79 80 80 79 79 79 78 76 75 73 73 74 75 74 74 74 73 72 70 68 69 70 71 71 70 70 71 73 73 74 74 74 73 73 72 71 70 72 74 76 77 78 79 80
78 78 78 78 77 76 76 75 74 74 74 74 74 75 75 75 75 75 76 76 77 77 77 78 78 78 78 78 78 78 78 78 79 79 79 78 78 77 77 76 76 76 77 77 77 77 77 76 73 71 70 70 71 72 73 72 71 71 70 68 65 66 68 69 68 68 68 68 69 70 70 70 71 71 70 69 68 68 70 72 74 75 75 76 78
76 76 77 76 76 75 74 72 72 72 72 72 73 73 73 73 73 73 74 74 74 74 74 75 75 75 75 75 75 75 75 76 76 76 76 76 75 75 74 74 74 73 74 74 74 74 75 74 71 68 68 67 68 69 70 70 68 68 68 65 62 62 65 66 66 65 65 65 65 66 66 66 68 68 67 66 66 66 68 71 72 72 73 75 76
75 75 75 75 75 74 72 71 70 70 71 71 71 72 72 71 71 72 72 72 72 72 72 73 73 73 73 74 73 73 73 73 73 74 74 73 71 70 70 70 70 70 70 71 71 71 71 70 68 66 65 64 64 65 67 67 65 66 65 62 59 60 63 64 63 63 62 62 62 63 63 63 65 65 64 64 65 65 67 69 70 70 71 72 71
75 74 74 74 74 73 71 70 69 69 69 69 70 71 70 70 70 70 71 71 71 71 71 71 72 72 72 72 72 72 71 71 71 71 71 70 68 66 65 66 67 68 68 68 68 68 67 67 65 63 62 62 62 62 63 64 63 63 63 60 57 58 60 62 61 60 59 59 59 60 60 61 62 63 62 63 63 64 66 67 68 68 67 66 66
75 74 73 72 72 72 71 69 68 68 68 68 68 69 69 68 68 69 70 70 71 71 71 71 71 72 72 71 71 71 70 69 69 68 67 67 65 64 62 62 63 65 66 66 66 65 64 63 62 60 59 60 60 59 60 60 60 61 61 58 55 56 58 59 58 57 56 56 56 57 58 59 60 61 61 61 61 62 63 65 65 63 62 62 62
75 74 72 72 71 71 70 68 67 67 66 66 66 68 68 68 68 68 69 70 70 70 70 70 71 71 71 70 70 69 68 67 67 66 65 64 63 62 60 59 60 62 64 65 64 62 60 60 59 58 57 57 58 58 57 56 57 58 58 55 52 53 55 56 55 53 54 54 54 55 56 57 58 58 58 58 59 59 60 61 61 58 58 58 60
76 74 73 72 71 70 70 69 67 66 66 65 66 67 68 68 67 68 69 69 69 70 70 70 70 70 70 69 69 68 67 66 65 64 63 61 60 59 58 57 58 60 62 63 62 60 57 56 56 56 55 54 55 56 54 53 54 56 55 52 50 51 52 52 51 50 51 52 52 53 54 55 55 56 56 55 55 56 57 57 55 54 54 56 58
76 75 73 72 71 71 70 69 68 67 66 66 65 66 68 68 67 67 68 68 69 69 69 69 69 69 69 68 67 66 65 64 63 61 60 58 57 57 56 56 57 59 60 61 60 57 55 53 53 53 53 52 53 54 52 50 51 53 51 49 48 49 49 48 47 47 48 49 50 51 52 52 52 52 52 52 52 53 53 52 51 51 53 55 57
76 75 74 73 72 71 71 70 70 68 67 66 66 66 67 67 67 67 67 68 68 69 69 68 69 68 67 66 65 64 63 62 61 59 57 55 54 53 54 54 55 57 59 59 58 55 52 51 51 50 50 50 51 52 50 47 47 49 48 46 46 46 46 46 45 45 45 46 47 48 49 49 49 49 49 49 50 50 49 49 49 51 53 54 55
76 75 74 73 72 72 72 71 71 70 68 67 67 67 67 67 67 67 67 68 68 69 68 68 67 66 66 64 63 62 62 61 60 58 56 53 51 50 50 50 52 55 58 58 55 52 50 48 48 48 47 46 48 50 48 44 44 45 44 43 44 44 44 43 43 43 43 44 45 45 46 46 46 46 47 47 48 47 47 47 48 50 51 53 54
77 76 75 74 73 73 73 72 72 71 69 68 67 67 67 67 67 67 67 67 68 68 67 66 65 65 64 63 62 61 60 60 59 57 54 51 50 48 48 47 48 52 56 57 53 49 48 46 45 44 44 42 43 47 47 43 41 42 42 41 41 42 42 41 41 41 41 42 42 43 43 44 44 44 45 45 46 45 45 45 47 49 51 52 53
78 77 76 74 73 73 73 73 73 71 70 69 68 67 67 68 67 67 67 66 67 67 66 65 64 63 62 62 61 60 59 58 57 56 53 50 47 45 46 47 47 49 52 55 52 48 47 46 43 41 40 39 39 42 44 42 40 40 40 39 39 39 39 39 39 40 40 40 40 41 42 42 42 42 42 43 43 43 43 44 46 48 50 51 51
78 78 77 75 74 73 73 73 73 72 70 69 68 67 68 68 68 67 66 65 65 65 64 64 63 63 61 60 59 58 57 56 55 54 53 52 47 42 40 43 47 50 50 51 50 48 47 46 44 40 38 37 38 39 39 38 38 38 38 37 37 37 37 37 38 38 38 38 39 39 40 40 40 40 40 41 41 41 41 42 45 47 49 49 49
79 78 78 76 75 74 73 73 73 72 71 69 68 68 68 68 68 67 65 63 63 63 63 63 62 62 61 59 57 57 56 55 54 52 51 52 51 46 39 36 40 47 51 50 47 45 45 46 45 42 38 36 37 37 37 35 35 36 36 35 35 35 35 36 36 36 37 37 38 38 38 38 38 39 39 40 40 41 41 42 44 46 47 47 46
Wind_Direction
283 283 283 282 282 282 282 282 282 282 282 282 282 282 282 282 282 282 282 282 282 281 281 281 281 281 281 281 281 281 280 280 280 280 279 279 279 279 279 279 279 279 278 277 275 273 272 272 272 271 271 270 269 268 268 267 266 265 265 264 264 264 264 263 261 260 259 257 256 255 253 251 250 249 247 246 246 245 245 244 244 244 243 242 241
283 283 282 282 282 282 282 282 282 282 282 282 282 282 282 282 282 282 281 281 281 281 281 280 280 280 280 281 281 281 280 280 280 280 279 279 279 279 279 279 278 278 277 275 273 271 271 270 270 270 270 269 268 268 268 267 267 266 265 264 263 263 263 263 261 260 258 257 256 254 251 250 249 248 247 246 244 243 243 242 242 243 242 242 241
283 283 283 283 283 282 282 282 282 282 282 282 282 282 281 281 281 281 281 281 280 280 280 280 280 281 281 281 281 281 280 280 280 280 280 280 279 279 279 278 277 276 275 273 271 270 270 269 269 269 268 268 267 267 267 267 266 266 265 264 263 262 262 262 261 260 258 256 254 252 249 249 249 248 247 246 244 242 241 241 241 242 242 242 242
283 283 283 282 282 282 282 282 282 282 281 281 281 281 281 281 281 281 281 281 281 281 281 281 281 281 281 281 280 280 280 280 280 280 280 280 279 279 278 277 276 275 274 272 271 270 269 269 269 268 268 267 266 266 265 265 264 264 264 263 262 262 261 261 260 259 258 256 254 251 248 248 248 248 247 246 245 244 242 241 241 242 242 243 243
283 283 283 282 282 282 282 282 282 282 282 282 281 281 281 281 281 281 281 281 281 281 281 281 281 281 281 280 280 280 280 280 280 280 280 279 279 278 278 277 276 275 274 273 272 271 271 270 269 269 268 268 267 266 265 264 263 262 262 261 261 261 261 261 260 259 257 256 254 250 248 247 248 248 248 246 245 245 244 243 243 243 243 243 243
283 283 283 283 283 283 282 282 282 282 282 282 282 282 281 281 281 281 282 281 281 281 281 281 281 280 280 280 280 280 280 279 279 279 279 279 278 278 277 277 276 275 274 274 273 272 272 271 270 270 270 269 268 267 266 265 264 263 261 260 259 259 258 259 259 259 257 255 254 251 248 247 247 248 248 247 247 246 245 244 245 245 244 244 244
283 283 283 283 283 282 282 282 282 282 281 281 281 281 281 281 281 281 281 281 281 281 280 280 280 280 280 280 279 279 279 279 279 279 278 278 278 278 278 277 276 275 274 274 273 272 272 271 271 270 270 269 268 268 267 266 265 264 263 261 260 258 257 256 257 258 258 256 254 252 250 248 246 246 247 247 247 247 247 245 245 245 245 245 244
283 282 282 282 282 282 281 281 281 281 281 281 281 281 280 280 280 280 280 280 280 280 280 280 280 280 280 280 279 279 279 279 279 279 279 279 279 278 278 278 277 276 276 275 274 273 273 272 271 271 270 270 269 268 267 266 265 264 263 262 261 259 258 256 255 255 256 256 255 253 251 249 248 247 246 247 247 247 248 248 246 244 244 244 244
282 282 282 281 281 281 281 281 280 280 280 280 280 280 280 280 280 280 281 281 281 281 281 280 280 280 280 280 279 279 279 279 279 279 279 279 279 278 278 278 278 277 277 276 276 275 274 274 273 272 271 271 270 269 268 267 266 265 264 263 261 260 258 257 256 255 254 254 254 254 252 250 249 248 247 247 246 246 246 248 248 247 245 244 244
281 281 281 281 281 281 281 281 281 281 281 281 280 280 280 281 281 281 281 281 281 281 281 281 280 280 280 280 280 279 279 279 279 279 279 279 278 278 278 278 278 278 278 277 277 276 276 275 274 273 273 272 271 270 269 268 267 266 265 264 262 261 259 257 256 254 254 253 253 253 252 251 250 249 248 247 247 246 245 246 248 249 247 245 244
282 282 282 281 281 281 281 281 281 281 281 281 281 281 281 281 281 282 282 282 281 281 281 281 280 280 280 280 280 280 279 279 279 278 278 278 278 278 278 278 278 278 277 277 277 277 276 276 275 274 274 273 272 271 270 269 268 267 265 264 263 262 260 259 257 255 253 252 252 251 251 251 250 250 249 249 248 247 246 245 246 248 249 248 246
282 282 282 282 282 282 282 282 281 281 281 281 281 281 282 282 282 282 282 281 281 281 280 280 280 280 280 279 279 279 278 278 278 277 277 277 277 277 277 277 277 277 277 277 276 276 276 275 275 274 274 273 272 271 270 269 268 267 266 265 263 262 261 259 258 256 255 253 252 251 250 249 249 249 249 249 249 248 247 245 245 246 247 248 248
283 282 282 282 282 281 281 281 281 281 281 281 281 281 281 281 281 281 281 280 280 280 279 279 279 279 279 278 278 278 277 277 277 278 278 278 278 278 278 277 277 277 277 277 276 276 276 276 275 274 274 273 272 271 271 270 268 267 266 265 264 263 261 260 258 257 255 254 252 251 250 249 248 248 248 248 248 248 247 246 245 245 245 246 247
282 282 281 281 281 281 281 281 281 280 280 281 281 281 281 281 280 280 280 279 279 279 278 278 278 278 278 278 278 278 278 278 278 278 278 278 278 277 277 277 277 277 277 277 277 276 276 276 275 275 274 274 273 272 271 270 269 268 267 265 264 263 262 260 259 257 256 254 253 251 250 249 249 248 247 247 247 247 247 247 246 245 244 244 245
282 282 282 282 282 281 281 281 281 281 281 281 282 282 281 281 280 280 279 279 279 279 278 278 278 278 278 278 278 278 278 278 278 278 278 278 277 277 277 277 277 277 277 277 277 277 276 276 276 275 275 274 273 272 271 270 269 268 267 266 264 263 262 261 259 258 256 255 253 252 251 249 249 248 247 246 246 246 246 246 246 245 244 243 243
284 284 283 283 283 283 283 283 283 283 283 283 283 282 282 281 281 280 280 280 280 280 280 280 280 280 280 280 280 280 280 279 279 279 279 279 278 278 278 278 277 277 277 277 277 277 276 276 276 275 275 274 273 272 271 270 269 268 267 266 265 264 262 261 260 259 257 256 255 253 252 251 249 249 248 247 246 246 245 245 245 245 244 244 243
285 285 285 285 285 285 285 285 285 285 285 284 283 283 282 282 282 282 282 282 282 282 282 282 282 282 281 281 281 281 281 280 280 280 280 280 279 279 279 278 278 278 277 277 277 276 276 276 276 275 275 274 274 273 272 271 270 269 268 267 265 264 263 262 261 260 259 258 256 255 254 253 251 250 249 249 248 247 246 245 245 244 244 244 243
285 285 286 286 286 286 285 285 285 284 284 283 283 283 283 283 283 283 282 282 282 282 282 282 281 281 281 281 281 281 280 280 280 280 279 279 279 279 278 278 278 277 277 277 276 276 276 275 275 275 274 274 273 273 272 272 271 270 269 268 267 266 264 263 262 261 260 259 258 257 256 255 253 252 251 250 249 249 248 247 247 246 245 245 244
285 285 285 285 284 284 284 284 283 283 283 283 283 283 282 282 282 282 282 281 281 281 281 281 281 280 280 280 280 280 279 279 279 279 279 278 278 278 278 277 277 277 276 276 276 275 275 275 274 274 274 273 273 272 272 271 271 270 269 269 267 266 265 264 263 262 260 259 258 257 257 256 255 254 253 252 251 250 250 249 248 248 247 246 245
284 284 284 283 283 283 283 283 282 282 282 282 282 282 281 281 281 281 281 281 281 280 280 280 280 280 279 279 279 279 279 279 278 278 278 278 278 277 277 277 277 277 276 276 276 275 275 275 274 274 273 273 273 272 272 271 271 270 269 268 267 266 265 264 264 263 261 260 259 258 256 256 255 254 254 253 252 251 251 250 249 249 249 248 247
284 284 284 283 283 283 282 282 282 282 282 281 281 281 281 281 281 281 281 281 281 280 280 280 280 279 279 279 279 279 279 278 278 278 278 278 278 278 278 277 277 277 277 276 276 276 275 275 275 274 274 274 273 273 272 272 271 270 269 269 268 267 266 265 264 263 262 261 260 258 257 256 255 254 253 253 253 252 251 251 250 250 249 249 248
285 285 284 284 283 283 283 282 282 282 282 282 281 281 281 281 281 281 281 281 280 280 280 280 280 279 279 279 279 279 279 279 279 279 278 278 278 278 278 277 277 277 277 277 277 276 276 276 276 275 275 274 274 273 273 272 271 270 269 269 268 267 266 265 264 264 263 262 261 260 258 257 255 254 254 253 253 253 252 252 251 251 251 250 250
286 286 286 285 285 284 284 284 283 283 283 283 282 282 282 282 282 281 281 281 281 281 280 280 280 280 280 280 280 279 279 279 279 279 279 279 278 278 278 278 278 278 278 278 277 277 277 276 276 275 275 274 273 273 272 271 270 269 268 268 267 266 265 265 264 263 262 262 261 260 259 258 257 256 255 254 253 253 253 253 252 252 252 251 251
288 288 287 287 286 286 285 285 285 284 284 283 283 283 282 282 282 282 282 281 281 281 281 281 281 281 280 280 280 280 280 280 280 280 280 279 279 279 279 279 279 278 278 278 277 277 276 276 275 274 274 273 272 271 271 270 269 268 267 266 266 265 264 264 263 262 262 261 261 260 259 259 258 257 256 255 254 254 253 253 253 253 253 252 252
291 291 290 289 288 287 287 286 286 285 285 284 284 283 283 283 283 282 282 282 282 281 281 281 281 281 281 281 281 281 281 280 280 280 280 280 280 280 279 279 279 279 278 278 277 277 276 275 274 274 273 272 272 271 270 270 269 268 268 267 266 265 265 264 264 263 262 261 261 260 260 259 258 258 257 256 255 255 254 254 254 254 254 253 253
294 293 292 291 291 290 289 288 288 287 286 286 285 285 284 284 284 283 283 283 282 282 282 282 282 282 282 282 281 281 281 281 281 281 281 280 280 280 280 279 279 279 278 278 277 276 276 275 275 274 274 273 273 272 271 271 270 269 269 268 267 266 266 265 264 264 263 262 261 260 260 259 259 258 258 257 256 255 254 254 254 253 253 254 253
294 294 294 293 293 292 292 291 290 289 289 288 287 287 286 286 285 285 285 284 284 283 283 283 283 282 282 282 282 282 281 281 281 281 281 281 280 280 280 279 279 278 278 278 277 277 276 276 276 275 275 274 274 273 272 271 271 270 269 268 267 267 266 265 264 264 263 262 262 261 260 259 259 258 258 257 256 255 255 254 253 253 253 253 253
294 294 294 293 293 293 293 292 291 291 290 290 289 289 288 287 287 286 286 285 285 284 284 284 283 283 283 282 282 282 282 281 281 281 281 280 280 280 280 280 279 279 279 279 278 278 278 277 277 276 275 275 274 273 272 271 270 270 269 268 267 267 266 265 265 264 263 262 261 260 259 258 258 257 257 256 256 256 255 254 254 253 253 253 253
296 295 294 294 293 293 292 292 291 291 290 290 290 289 289 288 288 287 287 286 286 285 285 285 284 284 284 283 283 283 283 282 282 282 282 281 281 281 281 281 281 281 280 280 279 279 278 278 277 277 276 275 274 273 272 271 270 270 269 268 268 268 267 266 265 264 263 262 260 259 258 257 257 256 256 256 256 255 255 254 254 253 253 253 253
298 297 297 296 295 295 294 293 293 292 291 291 290 290 289 289 288 288 288 287 287 286 286 286 285 285 285 284 284 284 284 283 283 283 283 283 283 282 282 282 282 282 281 281 280 280 279 278 278 277 277 276 275 274 273 273 272 271 270 270 269 269 268 267 266 265 263 262 261 260 258 258 257 257 256 256 256 255 255 254 254 254 253 253 253
302 301 300 299 298 298 297 296 295 294 293 293 292 291 291 290 290 289 289 288 288 287 287 287 286 286 286 285 285 285 285 285 285 284 284 284 284 283 283 283 283 282 282 282 281 281 280 279 279 278 278 277 277 276 276 275 274 273 272 271 269 269 268 268 267 266 264 263 262 261 260 258 258 257 257 256 255 255 255 255 254 254 254 253 253
305 304 304 303 302 301 300 299 298 297 296 295 294 294 293 293 292 291 291 290 290 289 289 288 288 288 287 287 287 287 286 286 286 285 285 285 284 284 284 284 284 283 283 282 282 281 281 280 280 279 279 278 278 278 277 276 275 274 273 271 270 268 268 267 266 265 265 264 263 263 262 260 258 257 257 256 255 255 254 254 254 253 253 253 253
308 307 306 306 305 304 303 302 301 300 299 298 297 296 296 295 294 294 293 292 292 291 291 290 290 289 289 289 288 288 287 287 287 286 286 286 286 285 285 285 285 285 284 284 283 283 282 282 281 280 280 279 278 277 276 276 275 274 273 272 271 269 267 266 266 265 264 264 263 263 262 261 259 258 257 256 256 255 254 254 253 253 253 252 252
311 310 309 308 307 306 305 304 303 302 301 300 299 298 297 296 296 295 294 293 293 292 292 291 291 290 290 290 289 289 288 288 288 287 287 287 287 287 286 286 286 285 285 284 284 283 283 282 281 280 279 279 278 278 277 276 275 274 273 272 271 270 269 267 266 265 264 264 263 262 262 261 260 259 257 256 255 255 254 253 252 252 251 250 250
313 312 311 310 310 308 307 306 305 304 303 301 300 299 298 298 297 296 295 295 294 293 293 292 292 291 291 291 290 290 290 289 289 289 289 288 288 288 287 287 287 286 285 285 284 284 284 283 282 281 281 281 280 279 278 277 276 275 274 273 273 272 270 268 267 266 265 265 264 263 263 262 261 260 259 257 255 255 254 253 251 250 249 249 248
314 313 312 312 311 310 309 308 307 306 304 303 302 301 300 299 299 298 297 296 296 295 295 294 294 293 293 292 292 292 291 291 291 290 290 290 290 289 289 289 288 288 287 287 286 286 285 285 284 284 284 283 282 281 280 278 277 276 275 275 274 273 271 269 268 266 265 264 264 263 263 262 262 261 259 258 256 255 253 252 251 249 248 248 247
314 314 313 313 312 311 310 309 308 307 305 304 303 302 301 300 300 299 298 298 297 296 296 295 295 294 294 294 293 293 293 292 292 292 291 291 291 291 291 290 290 290 289 289 288 287 286 285 285 285 285 284 282 281 280 279 278 277 276 275 274 272 271 269 268 266 264 263 262 262 262 261 261 260 259 258 256 254 253 251 250 249 247 246 246
315 314 314 313 313 312 311 310 309 308 307 305 304 303 302 301 301 300 299 299 298 297 297 296 296 295 295 295 294 294 294 293 293 293 292 292 292 292 292 291 291 290 289 289 288 287 286 285 285 285 284 283 282 281 280 278 278 277 275 274 273 272 270 269 267 265 264 262 261 261 260 260 259 259 257 256 254 252 251 250 249 248 247 245 244
316 316 315 315 314 314 313 312 311 309 308 307 306 305 304 303 302 302 301 300 299 299 298 298 297 297 296 296 295 295 295 294 294 293 293 293 293 293 293 292 292 291 289 288 287 287 286 285 285 285 284 283 282 281 280 279 278 277 275 274 273 271 270 268 267 265 264 263 261 260 259 259 258 257 256 255 253 251 250 249 248 247 246 245 244
319 318 318 317 316 316 315 314 313 311 310 309 308 306 306 305 304 303 303 302 301 301 300 299 299 298 297 297 296 296 296 295 295 294 294 294 294 294 294 293 292 291 289 288 287 286 285 285 285 285 284 283 281 280 279 279 278 277 276 275 273 271 270 268 267 265 264 263 261 260 259 257 257 256 255 253 252 250 249 248 247 246 246 246 245
322 321 321 320 319 318 317 316 315 313 312 311 309 308 308 307 306 305 304 303 302 302 301 301 300 299 299 298 298 298 298 298 297 297 297 296 296 296 295 294 293 291 289 288 287 286 286 285 285 285 283 282 280 279 278 278 278 276 275 274 272 270 269 268 266 265 263 262 261 259 258 256 255 254 253 252 250 249 248 248 247 247 246 247 246
324 324 323 322 320 319 318 317 316 315 313 312 311 310 309 308 307 306 305 305 304 303 303 302 302 301 301 301 301 301 301 300 300 299 299 298 298 297 296 294 293 291 289 287 286 286 286 286 285 284 283 282 280 279 278 278 277 275 274 273 271 269 268 267 266 265 263 261 260 258 256 255 253 252 251 250 250 249 248 248 247 247 247 246 245
327 326 325 323 322 321 319 318 318 316 315 314 313 312 311 310 309 308 307 306 306 305 305 304 304 303 303 303 303 303 303 302 301 301 300 299 299 298 296 295 293 291 289 288 287 286 287 286 286 285 283 282 281 279 278 277 276 275 274 273 271 269 268 267 265 264 262 261 259 257 255 253 252 251 250 249 249 248 248 248 247 247 246 245 244
329 328 327 326 324 322 321 320 319 318 317 317 315 314 312 312 311 310 309 308 307 307 306 306 305 305 306 305 305 305 304 303 302 301 300 300 299 298 297 295 293 291 289 288 288 288 288 287 286 285 284 282 281 280 278 277 276 275 275 274 272 270 268 267 265 263 262 260 258 256 254 253 252 251 249 248 248 247 247 247 247 246 245 244 243
330 329 329 327 326 324 323 322 321 320 320 319 317 315 314 313 312 311 310 309 309 308 308 308 308 308 308 307 306 306 304 303 302 301 301 301 300 299 297 296 293 291 289 288 288 289 289 288 287 286 285 283 281 280 279 278 277 276 275 274 272 270 269 267 265 263 260 259 257 255 254 253 251 250 249 248 246 246 246 245 245 243 242 241 240
331 331 330 329 327 326 325 324 323 322 322 320 319 317 315 314 314 313 312 311 310 310 310 310 309 309 308 308 307 306 305 304 303 302 302 301 300 299 298 296 294 292 290 289 289 290 290 289 287 286 285 284 283 281 279 278 277 276 275 274 272 270 269 267 265 262 260 258 256 254 253 252 251 249 248 246 245 244 244 243 241 240 240 239 239
332 331 331 330 329 327 326 325 324 323 323 322 320 318 317 316 315 314 313 313 312 312 311 311 311 310 309 308 308 307 306 305 304 304 303 302 301 299 298 296 294 292 290 289 290 291 290 289 287 286 285 285 285 283 281 279 277 276 275 273 271 270 268 267 264 262 259 257 256 254 252 251 250 248 246 244 243 242 241 240 238 238 237 237 237
333 332 331 331 330 328 327 325 325 324 324 323 321 319 318 317 316 315 315 315 314 313 313 313 312 311 310 310 309 309 308 306 305 305 304 303 302 301 299 296 294 292 291 290 291 291 290 288 286 285 285 284 284 283 282 281 278 276 275 273 271 269 268 266 264 262 259 257 255 254 252 250 248 246 245 243 242 240 239 237 236 236 235 235 235
334 333 332 331 330 329 328 326 325 325 324 324 322 320 319 318 317 317 317 316 316 315 314 314 312 312 311 311 311 310 309 307 307 306 305 303 303 303 302 299 295 292 291 292 293 293 292 289 287 285 284 283 281 280 281 281 278 276 274 272 270 269 267 265 264 261 259 257 255 253 251 249 248 246 244 242 240 239 237 236 235 235 235 234 234
335 333 333 332 331 330 328 327 326 325 325 324 323 321 320 319 318 318 318 318 317 316 315 314 313 313 313 313 312 311 310 309 308 308 307 305 304 303 302 301 298 295 293 293 294 295 294 292 290 288 286 284 281 279 279 279 278 275 274 272 270 268 266 264 263 261 259 257 254 252 251 249 247 245 243 241 239 236 235 234 234 234 235 234 234
335 334 334 333 332 331 330 328 327 326 326 325 324 323 322 321 320 320 320 320 319 317 316 315 315 314 314 315 314 312 311 310 310 310 309 308 306 305 303 301 300 297 295 294 294 294 294 294 293 292 290 287 284 282 281 279 278 276 274 272 270 268 266 264 262 260 258 256 254 252 250 248 246 244 241 239 237 234 232 232 232 233 233 234 233